When you browse on this site, cookies collect data to enhance your experience and personalize the content and advertising you see.
Visit our Privacy Policy to learn more. By continuing to use the site, you agree to this use of cookies and data.
  • In Romania
  • List of Countries
  • For 7 days
  • Water Temperature
  • Weather Map
  • Weather Widgets
  • user-avatar
    Login

    Hourly Weather Batina

    Today, 29 January, Wednesday

    Time Temperature Precipitation Wind Pressure Humidity
    00:00 +7°C° 0 mm 1 mps 673 mmHg 62%
    01:00 +7°C° 0 mm 1 mps 673 mmHg 63%
    02:00 +7°C° 0 mm 1 mps 673 mmHg 64%
    03:00 +7°C° 0 mm 1 mps 672 mmHg 65%
    04:00 +7°C° 0 mm 1 mps 673 mmHg 66%
    05:00 +7°C° 0 mm 1 mps 673 mmHg 67%
    06:00 +7°C° 0 mm 1 mps 673 mmHg 68%
    07:00 +8°C° 0 mm 1 mps 674 mmHg 62%
    08:00 +10°C° 0 mm 1 mps 674 mmHg 56%
    09:00 +12°C° 0 mm 1 mps 675 mmHg 50%
    10:00 +13°C° 0 mm 1 mps 675 mmHg 47%
    11:00 +14°C° 0 mm 2 mps 675 mmHg 44%
    12:00 +15°C° 0 mm 2 mps 675 mmHg 41%
    13:00 +15°C° 0 mm 2 mps 675 mmHg 42%
    14:00 +14°C° 0 mm 3 mps 675 mmHg 43%
    15:00 +16°C° 0 mm 3 mps 674 mmHg 44%
    16:00 +13°C° 0 mm 3 mps 674 mmHg 51%
    17:00 +12°C° 0 mm 2 mps 674 mmHg 58%
    18:00 +11°C° 0 mm 1 mps 674 mmHg 65%
    19:00 +10°C° 0 mm 1 mps 674 mmHg 68%
    20:00 +10°C° 0 mm 1 mps 674 mmHg 70%
    21:00 +9°C° 0 mm 0 mps 675 mmHg 72%
    22:00 +8°C° 0 mm 0 mps 674 mmHg 74%
    23:00 +8°C° 0 mm 0 mps 674 mmHg 76%

    Tomorrow, 30 January, Thursday

    Time Temperature Precipitation Wind Pressure Humidity
    00:00 +7°C° 0 mm 0 mps 674 mmHg 78%
    01:00 +7°C° 0 mm 0 mps 674 mmHg 79%
    02:00 +6°C° 0 mm 0 mps 673 mmHg 80%
    03:00 +6°C° 0 mm 0 mps 673 mmHg 81%
    04:00 +6°C° 0 mm 0 mps 673 mmHg 81%
    05:00 +6°C° 0 mm 0 mps 673 mmHg 80%
    06:00 +6°C° 0 mm 0 mps 673 mmHg 80%
    07:00 +8°C° 0 mm 0 mps 674 mmHg 72%
    08:00 +10°C° 0 mm 0 mps 674 mmHg 63%
    09:00 +12°C° 0 mm 1 mps 675 mmHg 54%
    10:00 +13°C° 0 mm 1 mps 675 mmHg 51%
    11:00 +14°C° 0 mm 2 mps 675 mmHg 48%
    12:00 +15°C° 0 mm 2 mps 675 mmHg 45%
    13:00 +15°C° 0 mm 2 mps 675 mmHg 45%
    14:00 +15°C° 0 mm 2 mps 675 mmHg 45%
    15:00 +15°C° 0 mm 1 mps 674 mmHg 45%
    16:00 +13°C° 0 mm 1 mps 674 mmHg 52%
    17:00 +12°C° 0 mm 1 mps 674 mmHg 60%
    18:00 +9°C° 0 mm 0 mps 673 mmHg 68%
    19:00 +9°C° 0 mm 0 mps 673 mmHg 69%
    20:00 +8°C° 0 mm 0 mps 673 mmHg 69%
    21:00 +8°C° 0 mm 0 mps 673 mmHg 70%
    22:00 +9°C° 0 mm 1 mps 673 mmHg 70%
    23:00 +8°C° 0 mm 1 mps 673 mmHg 70%

    Day after tomorrow, 31 January, Friday

    Time Temperature Precipitation Wind Pressure Humidity
    00:00 +8°C° 0 mm 1 mps 673 mmHg 70%
    01:00 +8°C° 0 mm 1 mps 673 mmHg 70%
    02:00 +7°C° 0 mm 1 mps 672 mmHg 70%
    03:00 +7°C° 0 mm 1 mps 672 mmHg 70%
    04:00 +7°C° 0 mm 1 mps 672 mmHg 69%
    05:00 +7°C° 0 mm 1 mps 672 mmHg 69%
    06:00 +6°C° 0 mm 1 mps 672 mmHg 69%
    07:00 +8°C° 0 mm 1 mps 673 mmHg 59%
    08:00 +9°C° 0 mm 0 mps 674 mmHg 50%
    09:00 +11°C° 0 mm 0 mps 674 mmHg 41%
    10:00 +12°C° 0 mm 0 mps 674 mmHg 37%
    11:00 +14°C° 0 mm 1 mps 674 mmHg 33%
    12:00 +15°C° 0 mm 1 mps 674 mmHg 29%
    13:00 +15°C° 0 mm 1 mps 674 mmHg 30%
    14:00 +16°C° 0 mm 2 mps 674 mmHg 30%
    15:00 +16°C° 0 mm 2 mps 674 mmHg 30%
    16:00 +14°C° 0 mm 2 mps 673 mmHg 38%
    17:00 +12°C° 0 mm 1 mps 673 mmHg 46%
    18:00 +11°C° 0 mm 1 mps 673 mmHg 54%
    19:00 +10°C° 0 mm 1 mps 673 mmHg 56%
    20:00 +10°C° 0 mm 1 mps 673 mmHg 58%
    21:00 +8°C° 0 mm 0 mps 673 mmHg 60%
    22:00 +8°C° 0 mm 0 mps 672 mmHg 62%
    23:00 +7°C° 0 mm 0 mps 672 mmHg 64%

    1 February, Saturday

    Time Temperature Precipitation Wind Pressure Humidity
    00:00 +7°C° 0 mm 0 mps 672 mmHg 66%
    01:00 +7°C° 0 mm 0 mps 672 mmHg 68%
    02:00 +6°C° 0 mm 0 mps 672 mmHg 69%
    03:00 +6°C° 0 mm 0 mps 671 mmHg 70%
    04:00 +6°C° 0 mm 0 mps 671 mmHg 70%
    05:00 +7°C° 0 mm 1 mps 671 mmHg 71%
    06:00 +6°C° 0 mm 1 mps 672 mmHg 72%
    07:00 +8°C° 0 mm 1 mps 673 mmHg 66%
    08:00 +10°C° 0 mm 1 mps 673 mmHg 60%
    09:00 +12°C° 0 mm 1 mps 674 mmHg 55%
    10:00 +13°C° 0 mm 1 mps 675 mmHg 52%
    11:00 +14°C° 0 mm 1 mps 675 mmHg 49%
    12:00 +15°C° 0 mm 2 mps 675 mmHg 47%
    13:00 +15°C° 0 mm 2 mps 675 mmHg 47%
    14:00 +14°C° 0 mm 3 mps 675 mmHg 46%
    15:00 +14°C° 0 mm 3 mps 675 mmHg 46%
    16:00 +13°C° 0 mm 3 mps 675 mmHg 53%
    17:00 +12°C° 0 mm 2 mps 674 mmHg 60%
    18:00 +11°C° 0 mm 1 mps 674 mmHg 67%
    19:00 +10°C° 0 mm 1 mps 674 mmHg 70%
    20:00 +10°C° 0 mm 1 mps 674 mmHg 73%
    21:00 +9°C° 0 mm 1 mps 675 mmHg 77%
    22:00 +9°C° 0 mm 1 mps 675 mmHg 77%
    23:00 +9°C° 0 mm 1 mps 675 mmHg 78%

    2 February, Sunday

    Time Temperature Precipitation Wind Pressure Humidity
    00:00 +9°C° 0 mm 1 mps 675 mmHg 78%
    01:00 +9°C° 0 mm 1 mps 675 mmHg 80%
    02:00 +9°C° 0 mm 1 mps 675 mmHg 81%
    03:00 +8°C° 0 mm 2 mps 675 mmHg 83%
    04:00 +7°C° 0 mm 2 mps 675 mmHg 84%
    05:00 +7°C° 0 mm 2 mps 675 mmHg 85%
    06:00 +7°C° 0 mm 2 mps 675 mmHg 86%
    07:00 +8°C° 0 mm 2 mps 676 mmHg 81%
    08:00 +9°C° 0 mm 2 mps 677 mmHg 75%
    09:00 +12°C° 0 mm 2 mps 677 mmHg 70%
    10:00 +13°C° 0 mm 2 mps 678 mmHg 62%
    11:00 +14°C° 0 mm 2 mps 678 mmHg 54%
    12:00 +16°C° 0 mm 2 mps 678 mmHg 46%
    13:00 +16°C° 0 mm 2 mps 678 mmHg 42%
    14:00 +17°C° 0 mm 2 mps 678 mmHg 39%
    15:00 +17°C° 0 mm 2 mps 678 mmHg 35%
    16:00 +15°C° 0 mm 1 mps 677 mmHg 43%
    17:00 +14°C° 0 mm 1 mps 677 mmHg 51%
    18:00 +12°C° 0 mm 1 mps 676 mmHg 59%
    19:00 +11°C° 0 mm 1 mps 676 mmHg 60%
    20:00 +11°C° 0 mm 1 mps 676 mmHg 61%
    21:00 +11°C° 0 mm 1 mps 677 mmHg 61%
    22:00 +10°C° 0 mm 1 mps 676 mmHg 65%
    23:00 +10°C° 0 mm 1 mps 676 mmHg 69%

    3 February, Monday

    Time Temperature Precipitation Wind Pressure Humidity
    00:00 +10°C° 0 mm 1 mps 676 mmHg 72%
    01:00 +9°C° 0 mm 1 mps 676 mmHg 74%
    02:00 +8°C° 0 mm 2 mps 676 mmHg 77%
    03:00 +8°C° 0 mm 2 mps 676 mmHg 79%
    04:00 +7°C° 0 mm 2 mps 675 mmHg 78%
    05:00 +7°C° 0 mm 2 mps 675 mmHg 77%
    06:00 +7°C° 0 mm 2 mps 675 mmHg 76%
    07:00 +9°C° 0 mm 2 mps 676 mmHg 67%
    08:00 +12°C° 0 mm 2 mps 677 mmHg 57%
    09:00 +14°C° 0 mm 1 mps 678 mmHg 48%
    10:00 +15°C° 0 mm 1 mps 678 mmHg 43%
    11:00 +18°C° 0 mm 1 mps 678 mmHg 39%
    12:00 +19°C° 0 mm 1 mps 678 mmHg 34%
    13:00 +19°C° 0 mm 1 mps 678 mmHg 34%
    14:00 +19°C° 0 mm 1 mps 678 mmHg 35%
    15:00 +19°C° 0 mm 1 mps 677 mmHg 35%
    16:00 +18°C° 0 mm 1 mps 677 mmHg 42%
    17:00 +15°C° 0 mm 1 mps 677 mmHg 50%
    18:00 +13°C° 0 mm 1 mps 676 mmHg 57%
    19:00 +11°C° 0 mm 0 mps 676 mmHg 58%
    20:00 +11°C° 0 mm 0 mps 676 mmHg 59%
    21:00 +10°C° 0 mm 0 mps 676 mmHg 60%
    22:00 +10°C° 0 mm 0 mps 676 mmHg 59%
    23:00 +10°C° 0 mm 0 mps 676 mmHg 58%
    Show more